Location: Kergonan
(48.2337°N, 4.5518°W)
Time: 13:25:33
(UTC+00:00)

Cosmos 962 Rocket - Pass Details

Date: 18 January 2020
Orbit: 951 x 999 km, 83.0° (Epoch: 20 February)

Event Time Altitude Azimuth Distance (km) Brightness Sun altitude
Rises 05:58:40 0° 350° (N) 3,675 7.3 -20.1°
Reaches altitude 10° 06:01:10 10° 350° (N) 2,731 6.7 -19.7°
Maximum altitude 06:07:27 87° 262° (W) 991 4.4 -18.7°
Drops below altitude 10° 06:13:46 10° 175° (S) 2,744 7.1 -17.6°
Sets 06:16:17 0° 175° (S) 3,694 7.8 -17.2°
